{"data":{"norad_id":62649,"intl_designator":"2025-009AS","name":"AE1C","alt_names":[],"object_type":"PAYLOAD","status":"ACTIVE","operator":null,"country":"JPN","launch_date":"2025-01-14","launch_site_code":"AFWTR","launch_vehicle":null,"mission":null,"orbit_class":"UNKNOWN","rcs_meters":null,"size_class":null,"mass_kg":null,"dimensions":null,"purposes":[],"wikipedia_slug":null,"has_3d_model":false,"image_url":null,"decayed_at":null,"tle_current":{"epoch":"2026-05-25T04:39:42.255648Z","epoch_age_seconds":65220,"freshness":"FRESH","line1":"1 62649U 25009AS  26145.19423907  .00033418  00000+0  73208-3 0  9997","line2":"2 62649  97.4027 232.3329 0001729  75.0989 285.0451 15.44036375 75734","mean_motion":15.44036375,"eccentricity":0.0001729,"inclination_deg":97.4027,"raan_deg":232.3329,"arg_perigee_deg":75.0989,"mean_anomaly_deg":285.0451,"bstar":0.00073208,"rev_number":7573,"period_min":93.262051549789,"perigee_km":433.03311098248,"apogee_km":435.3888209091,"semimajor_km":6812.3479659458,"source":"CELESTRAK","updated_at":"2026-05-25T13:38:03.137587Z"}}}